Tracking 19212 objects as of 17-Jul-2018
HD Live streaming from Space Station
objects crossing your sky now

FENGYUN 1C DEB

Track FENGYUN 1C DEB now!
10-day predictions


NORAD ID: 31622
Int'l Code: 1999-025CAC
Perigee: 826.1 km
Apogee: 855.6 km
Inclination: 99.0 °
Period: 101.6 minutes
Semi major axis: 7211 km
RCS: 0.0179 m2 (small)
Launch date: May 10, 1999
Source: People's Republic of China (PRC)
Launch site: Taiyaun Space Center, China (TSC)

Note: This is SATELLITE DEBRIS
aabbcc
Your satellite tracking list
Your tracking list is empty




NASA's NSSDC Master Catalog

Two Line Element Set (TLE):
1 31622U 99025CAC 18197.57026698  .00000627  00000-0  33070-3 0  9999
2 31622  98.9715 233.4157 0020418 208.7608 304.6730 14.17537003573443
Source of the keplerian elements: AFSPC